Regional Weather Roundup
Issued by NWS Kansas City/Pleasant Hill, MO

Home | Current Version | Previous Version | Text Only | Print | Product List | Glossary On
Versions: 1 2 3 4 5 6 7 8 9 10 11 12 13 14 15 16 17 18 19 20 21 22 23 24 25 26 27
000
ASUS43 KEAX 201810
RWREAX

WEATHER ROUNDUP FOR EASTERN KANSAS AND NORTHWEST MISSOURI
NATIONAL WEATHER SERVICE KANSAS CITY/PLEASANT HILL MO
100 PM CDT WED SEP 20 2017

KSZ040-057-103>105-MOZ028-029-037-043-201900-
...KANSAS CITY METROPOLITAN AREA...

CITY           SKY/WX    TMP DP  RH WIND       PRES   REMARKS
K.C. INTL      PTSUNNY   84  73  69 SW17      29.81S HX  90
6HR MIN TEMP:  72; 6HR MAX TEMP:  85;

K.C. DOWNTOWN  CLOUDY    86  74  67 S14       29.79F HX  94
6HR MIN TEMP:  75; 6HR MAX TEMP:  86;

LEES SUMMIT    PTSUNNY   87  73  62 S21       29.83S HX  94
6HR MIN TEMP:  73; 6HR MAX TEMP:  87;

OLATHE - IXD   CLOUDY    83  72  69 S16       29.82S
6HR MIN TEMP:  73; 6HR MAX TEMP:  84;

OLATHE - OJC   CLOUDY    83  74  74 S13       29.82S
6HR MIN TEMP:  72; 6HR MAX TEMP:  83;

LAWRENCE       PTSUNNY   85  72  65 S10       29.80R HX  91

$$

MOZ001>008-011>017-020>025-030>033-038>040-044>046-053-054-201900-
...NORTHERN AND CENTRAL MISSOURI...

CITY           SKY/WX    TMP DP  RH WIND       PRES   REMARKS
ST. JOSEPH     CLOUDY    84  71  65 SW13      29.79R
6HR MIN TEMP:  73; 6HR MAX TEMP:  86;

MOSBY          CLOUDY    82  70  65 SW10      29.81S
WARRENSBURG    MOSUNNY   86  72  62 S14G21    29.83S HX  92
WHITEMAN AFB   MOSUNNY   88  76  67 SW20G26   29.82F HX  99
6HR MIN TEMP:  73; 6HR MAX TEMP:  88;

CLINTON        SUNNY     88  75  66 S15       29.84F HX  97
SEDALIA        SUNNY     89  75  63 S16       29.86F HX  99
6HR MIN TEMP:  73; 6HR MAX TEMP:  90;

WARSAW         NOT AVBL
CHILLICOTHE      N/A     86  73  65 S12       29.81F HX  93
6HR MIN TEMP:  71; 6HR MAX TEMP:  86;

KIRKSVILLE     SUNNY     87  72  60 S12G24    29.84F HX  93
6HR MIN TEMP:  73; 6HR MAX TEMP:  87;


$$

MOZ041-047>049-056>058-063>065-088>090-097-201900-
...EASTERN AND SOUTHERN MISSOURI...

CITY           SKY/WX    TMP DP  RH WIND       PRES   REMARKS
ST. LOUIS INTL MOSUNNY   91  72  53 SW9       29.91F HX  98
6HR MIN TEMP:  73; 6HR MAX TEMP:  91;

SPIRIT OF STL  MOSUNNY   91  73  55 CALM      29.89F HX  99
COLUMBIA       SUNNY     88  73  61 S12       29.88F HX  95
JEFFERSON CITY SUNNY     87  72  60 SW10      29.86F HX  93
ROLLA          SUNNY     91  69  48 S10       29.93F HX  96
OSAGE BEACH    SUNNY     90  72  55 S13       29.89F HX  97
SPRINGFIELD    SUNNY     91  72  53 SW12      29.90F HX  98
BRANSON        MOSUNNY   91  68  46 S10G16    29.94S HX  95
JOPLIN         SUNNY     89  75  63 S21       29.86F HX  99
WEST PLAINS    MOSUNNY   89  70  53 SW10G23   29.97S HX  94

$$

IAZ060-094-KSZ022-034>040-054-083-096-NEZ052-066-093-201900-
...KANSAS...SOUTHEAST NEBRASKA AND IOWA...

CITY           SKY/WX    TMP DP  RH WIND       PRES   REMARKS
TOPEKA         CLOUDY    86  71  60 S9G18     29.79R HX  91
6HR MIN TEMP:  74; 6HR MAX TEMP:  86;

MANHATTAN      SUNNY     85  63  47 SW7       29.80R
EMPORIA        PTSUNNY   85  69  58 SW12      29.80S
CHANUTE        PTSUNNY   88  73  61 SW17G24   29.83S HX  95
WICHITA        MOSUNNY   86  65  49 SW9G18    29.81S
OMAHA          SUNNY     78  54  43 NW14      29.83R
LINCOLN        SUNNY     79  50  36 N10       29.85S
FALLS CITY     CLOUDY    82  67  60 W9        29.78R
LAMONI         PTSUNNY   84  71  65 S14       29.80R
DES MOINES     PTSUNNY   84  70  62 SW8       29.77R

$$





USA.gov is the U.S. government's official web portal to all federal, state and local government web resources and services.